Cape Girardeau Regional Airport Cape Girardeau US
ICAO: KCGI
IATA: CGI
Category: Medium
Scheduled Services: Yes

Elevation: 342 ft
TransAlt. 18000 ft.

Airport Communications:
ASOS:120.55
MEMPHIS CNTR:133.65
CTAF:119
GND:121.6
ST LOUIS RDO:122.4
TWR:119
UNICOM:122.95

KCGI Zoom In..

Runways:

(A) RW 02 length 3997 ft width 100 ft
---- / hdg 23

(B) RW 10 length 6500 ft width 150 ft
ILS 109.50 / hdg 108

(C) RW 20 length 3997 ft width 100 ft
---- / hdg 203

(D) RW 28 length 6500 ft width 150 ft
---- / hdg 288

Location; KCGI
Day. 20 / Time. 02.53 Zulu
* Altimeter: 29.86
* Temperature: 26° c. 78.8°f.
* Wind from: 150° Speed 05 kn.
Dewpoint: 21° c.
Visibility: 10 Statute Miles.
Clouds: Clear (automated report).

KCGI 200253Z AUTO 15005KT 10SM CLR 26/21 A2986 RMK AO2 SLP106 T02560206 53006


Wind From 150°
Speed 05 kn.

 
 
jpsmedia.com for Web Design worldairports.se 2018   terms of use